2021-10-28 00:01:28 r, 19.86m,0000000001Hz,0000482146c,0000001.046s, 020.6C,00002191
2021-10-28 00:11:29 r, 19.93m,0000000001Hz,0000508777c,0000001.104s, 020.6C,00002191
2021-10-28 00:21:29 r, 19.68m,0000000001Hz,0000408786c,0000000.887s, 020.6C,00002191
2021-10-28 00:31:28 r, 19.50m,0000000001Hz,0000347559c,0000000.754s, 020.6C,00002191
2021-10-28 00:41:28 r, 19.36m,0000000002Hz,0000304188c,0000000.660s, 020.6C,00002191
2021-10-28 00:51:30 r, 19.27m,0000000002Hz,0000280469c,0000000.609s, 020.6C,00002191
2021-10-28 01:01:28 r, 19.32m,0000000001Hz,0000293620c,0000000.637s, 020.6C,00002191
2021-10-28 01:11:30 r, 19.27m,0000000002Hz,0000282144c,0000000.612s, 020.6C,00002191
2021-10-28 01:21:29 r, 19.20m,0000000002Hz,0000263976c,0000000.573s, 020.3C,00002191
2021-10-28 01:31:28 r, 19.19m,0000000002Hz,0000259219c,0000000.563s, 020.3C,00002191
2021-10-28 01:41:29 r, 19.12m,0000000002Hz,0000244649c,0000000.531s, 020.3C,00002191
2021-10-28 01:51:29 r, 19.02m,0000000002Hz,0000221507c,0000000.481s, 020.3C,00002191
2021-10-28 02:01:28 r, 19.08m,0000000002Hz,0000236018c,0000000.512s, 020.3C,00002191
2021-10-28 02:11:29 r, 19.04m,0000000002Hz,0000227087c,0000000.493s, 020.3C,00002191
2021-10-28 02:21:28 r, 19.13m,0000000001Hz,0000244747c,0000000.531s, 020.3C,00002191
2021-10-28 02:31:28 r, 18.96m,0000000002Hz,0000211097c,0000000.458s, 020.3C,00002191
2021-10-28 02:41:29 r, 18.98m,0000000002Hz,0000215637c,0000000.468s, 020.3C,00002191
2021-10-28 02:51:30 r, 18.89m,0000000003Hz,0000197667c,0000000.429s, 020.3C,00002191
2021-10-28 03:01:28 r, 18.76m,0000000003Hz,0000175734c,0000000.381s, 020.3C,00002191
2021-10-28 03:11:30 r, 18.71m,0000000003Hz,0000167873c,0000000.364s, 020.3C,00002191
2021-10-28 03:21:29 r, 18.66m,0000000003Hz,0000159459c,0000000.346s, 020.3C,00002191
2021-10-28 03:31:28 r, 18.55m,0000000003Hz,0000145119c,0000000.315s, 019.9C,00002191
2021-10-28 03:41:30 r, 18.53m,0000000003Hz,0000143192c,0000000.311s, 019.9C,00002191
2021-10-28 03:51:29 r, 18.67m,0000000003Hz,0000161306c,0000000.350s, 019.9C,00002191
2021-10-28 04:01:28 r, 18.76m,0000000002Hz,0000174790c,0000000.379s, 019.9C,00002191
2021-10-28 04:11:29 r, 18.61m,0000000003Hz,0000153335c,0000000.333s, 019.9C,00002191
2021-10-28 04:21:29 r, 18.39m,0000000004Hz,0000124839c,0000000.271s, 019.9C,00002191
2021-10-28 04:31:28 r, 18.37m,0000000003Hz,0000121958c,0000000.265s, 019.9C,00002191
2021-10-28 04:41:29 r, 18.46m,0000000003Hz,0000132479c,0000000.287s, 019.9C,00002191
2021-10-28 04:51:29 r, 18.42m,0000000004Hz,0000128010c,0000000.278s, 019.6C,00002191
2021-10-28 05:01:28 r, 18.15m,0000000004Hz,0000100243c,0000000.218s, 019.6C,00002191
2021-10-28 05:11:29 r, 17.84m,0000000006Hz,0000075735c,0000000.164s, 019.6C,00002191
2021-10-28 05:21:30 r, 17.84m,0000000007Hz,0000074986c,0000000.163s, 019.6C,00002191
2021-10-28 05:31:29 r, 17.79m,0000000006Hz,0000071888c,0000000.156s, 019.6C,00002191
2021-10-28 05:41:28 r, 18.19m,0000000005Hz,0000103727c,0000000.225s, 019.6C,00002191
2021-10-28 05:51:29 r, 18.41m,0000000003Hz,0000126719c,0000000.275s, 019.6C,00002191
2021-10-28 06:01:29 r, 18.29m,0000000004Hz,0000113184c,0000000.246s, 019.6C,00002191
2021-10-28 06:11:28 r, 18.18m,0000000005Hz,0000102087c,0000000.222s, 019.6C,00002191
2021-10-28 06:21:29 r, 18.06m,0000000005Hz,0000091409c,0000000.198s, 019.3C,00002191
2021-10-28 06:31:29 r, 18.11m,0000000005Hz,0000095818c,0000000.208s, 019.3C,00002191
2021-10-28 06:41:28 r, 18.11m,0000000005Hz,0000096754c,0000000.210s, 019.3C,00002191
2021-10-28 06:51:30 r, 17.62m,0000000008Hz,0000061248c,0000000.133s, 019.3C,00002191
2021-10-28 07:01:29 r, 16.73m,0000000017Hz,0000026976c,0000000.059s, 019.3C,00002191
2021-10-28 07:11:28 r, 14.89m,0000000092Hz,0000004975c,0000000.011s, 019.0C,00002191
2021-10-28 07:21:30 r, 12.62m,0000000758Hz,0000000000c,0000000.000s, 019.0C,00002191
2021-10-28 07:31:29 r, 10.57m,0000005043Hz,0000000000c,0000000.000s, 018.6C,00002191
2021-10-28 07:41:28 r, 08.90m,0000023247Hz,0000000000c,0000000.000s, 018.3C,00002191
2021-10-28 07:51:29 r, 07.94m,0000056558Hz,0000000000c,0000000.000s, 018.0C,00002191
2021-10-28 08:01:29 r, 07.15m,0000117034Hz,0000000000c,0000000.000s, 018.0C,00002191
2021-10-28 08:11:28 r, 06.43m,0000226941Hz,0000000000c,0000000.000s, 017.7C,00002191
2021-10-28 08:21:29 r, 06.17m,0000288937Hz,0000000000c,0000000.000s, 017.7C,00002191
2021-10-28 08:31:29 r, 05.89m,0000371941Hz,0000000000c,0000000.000s, 018.0C,00002191
2021-10-28 08:41:28 r, 00.00m,0000582203Hz,0000000000c,0000000.000s, 018.0C,00002191
2021-10-28 08:51:29 r, 00.00m,0000597821Hz,0000000000c,0000000.000s, 018.3C,00002191
2021-10-28 09:01:30 r, 00.00m,0000597853Hz,0000000000c,0000000.000s, 018.6C,00002191
2021-10-28 09:11:28 r, 00.00m,0000597722Hz,0000000000c,0000000.000s, 019.0C,00002191
2021-10-28 09:21:30 r, 00.00m,0000597544Hz,0000000000c,0000000.000s, 019.3C,00002191
2021-10-28 09:31:29 r, 00.00m,0000597630Hz,0000000000c,0000000.000s, 019.6C,00002191
2021-10-28 09:41:28 r, 00.00m,0000597650Hz,0000000000c,0000000.000s, 019.9C,00002191
2021-10-28 09:51:30 r, 00.00m,0000597619Hz,0000000000c,0000000.000s, 019.9C,00002191
2021-10-28 10:01:29 r, 00.00m,0000597678Hz,0000000000c,0000000.000s, 019.9C,00002191
2021-10-28 10:11:28 r, 00.00m,0000597652Hz,0000000000c,0000000.000s, 019.9C,00002191
2021-10-28 10:21:29 r, 00.00m,0000597535Hz,0000000000c,0000000.000s, 019.9C,00002191
2021-10-28 10:31:29 r, 00.00m,0000597612Hz,0000000000c,0000000.000s, 019.9C,00002191
2021-10-28 10:41:28 r, 00.00m,0000597622Hz,0000000000c,0000000.000s, 019.9C,00002191
2021-10-28 10:51:29 r, 00.00m,0000597605Hz,0000000000c,0000000.000s, 019.9C,00002191
2021-10-28 11:01:29 r, 00.00m,0000597655Hz,0000000000c,0000000.000s, 019.9C,00002191
2021-10-28 11:11:28 r, 00.00m,0000597570Hz,0000000000c,0000000.000s, 019.9C,00002191
2021-10-28 11:21:29 r, 00.00m,0000597524Hz,0000000000c,0000000.000s, 020.3C,00002191
2021-10-28 11:31:30 r, 00.00m,0000597473Hz,0000000000c,0000000.000s, 020.6C,00002191
2021-10-28 11:41:28 r, 00.00m,0000597403Hz,0000000000c,0000000.000s, 020.9C,00002191
2021-10-28 11:51:30 r, 00.00m,0000597415Hz,0000000000c,0000000.000s, 021.5C,00002191
2021-10-28 12:01:29 r, 00.00m,0000597378Hz,0000000000c,0000000.000s, 021.5C,00002191
2021-10-28 12:11:28 r, 00.00m,0000597482Hz,0000000000c,0000000.000s, 021.9C,00002191
2021-10-28 12:21:29 r, 00.00m,0000597281Hz,0000000000c,0000000.000s, 022.5C,00002191
2021-10-28 12:31:30 r, 00.00m,0000597300Hz,0000000000c,0000000.000s, 022.8C,00002191
2021-10-28 12:41:28 r, 00.00m,0000597409Hz,0000000000c,0000000.000s, 022.5C,00002191
2021-10-28 12:51:29 r, 00.00m,0000597344Hz,0000000000c,0000000.000s, 022.5C,00002191
2021-10-28 13:01:29 r, 00.00m,0000597170Hz,0000000000c,0000000.000s, 023.2C,00002191
2021-10-28 13:11:28 r, 00.00m,0000597212Hz,0000000000c,0000000.000s, 023.8C,00002191
2021-10-28 13:21:29 r, 00.00m,0000597312Hz,0000000000c,0000000.000s, 023.2C,00002191
2021-10-28 13:31:30 r, 00.00m,0000597293Hz,0000000000c,0000000.000s, 023.2C,00002191
2021-10-28 13:41:28 r, 00.00m,0000597253Hz,0000000000c,0000000.000s, 023.5C,00002191
2021-10-28 13:51:30 r, 00.00m,0000597133Hz,0000000000c,0000000.000s, 024.1C,00002191
2021-10-28 14:01:29 r, 00.00m,0000597001Hz,0000000000c,0000000.000s, 024.8C,00002191
2021-10-28 14:11:28 r, 00.00m,0000597112Hz,0000000000c,0000000.000s, 025.1C,00002191
2021-10-28 14:21:30 r, 00.00m,0000597098Hz,0000000000c,0000000.000s, 024.8C,00002191
2021-10-28 14:31:29 r, 00.00m,0000597142Hz,0000000000c,0000000.000s, 024.4C,00002191
2021-10-28 14:41:28 r, 00.00m,0000597083Hz,0000000000c,0000000.000s, 024.1C,00002191
2021-10-28 14:51:29 r, 00.00m,0000597195Hz,0000000000c,0000000.000s, 024.1C,00002191
2021-10-28 15:01:29 r, 00.00m,0000597234Hz,0000000000c,0000000.000s, 023.8C,00002191
2021-10-28 15:11:28 r, 00.00m,0000597185Hz,0000000000c,0000000.000s, 023.5C,00002191
2021-10-28 15:21:30 r, 00.00m,0000597253Hz,0000000000c,0000000.000s, 023.5C,00002191
2021-10-28 15:31:29 r, 00.00m,0000597272Hz,0000000000c,0000000.000s, 023.2C,00002191
2021-10-28 15:41:28 r, 00.00m,0000597280Hz,0000000000c,0000000.000s, 022.8C,00002191
2021-10-28 15:51:29 r, 00.00m,0000597261Hz,0000000000c,0000000.000s, 022.5C,00002191
2021-10-28 16:01:30 r, 00.00m,0000597342Hz,0000000000c,0000000.000s, 022.5C,00002191
2021-10-28 16:11:28 r, 00.00m,0000597340Hz,0000000000c,0000000.000s, 022.2C,00002191
2021-10-28 16:21:30 r, 00.00m,0000597227Hz,0000000000c,0000000.000s, 022.2C,00002191
2021-10-28 16:31:29 r, 00.00m,0000597358Hz,0000000000c,0000000.000s, 021.9C,00002191
2021-10-28 16:41:28 r, 00.00m,0000597363Hz,0000000000c,0000000.000s, 021.9C,00002191
2021-10-28 16:51:30 r, 00.00m,0000597398Hz,0000000000c,0000000.000s, 021.9C,00002191
2021-10-28 17:01:29 r, 00.00m,0000496753Hz,0000000000c,0000000.000s, 022.2C,00002191
2021-10-28 17:11:28 r, 00.00m,0000407240Hz,0000000000c,0000000.000s, 022.2C,00002191
2021-10-28 17:21:29 r, 06.12m,0000301145Hz,0000000000c,0000000.000s, 021.9C,00002191
2021-10-28 17:31:30 r, 06.52m,0000208271Hz,0000000000c,0000000.000s, 021.5C,00002191
2021-10-28 17:41:28 r, 07.09m,0000123787Hz,0000000000c,0000000.000s, 020.6C,00002191
2021-10-28 17:51:30 r, 07.91m,0000058197Hz,0000000000c,0000000.000s, 019.9C,00002191
2021-10-28 18:01:29 r, 09.12m,0000019021Hz,0000000000c,0000000.000s, 019.0C,00002191
2021-10-28 18:11:28 r, 10.83m,0000003951Hz,0000000000c,0000000.000s, 018.0C,00002191
2021-10-28 18:21:30 r, 12.97m,0000000548Hz,0000000000c,0000000.000s, 017.7C,00002191
2021-10-28 18:31:29 r, 15.12m,0000000076Hz,0000006120c,0000000.013s, 017.0C,00002191
2021-10-28 18:41:28 r, 16.99m,0000000014Hz,0000034392c,0000000.075s, 016.7C,00002191
2021-10-28 18:51:31 r, 18.55m,0000000004Hz,0000145243c,0000000.315s, 016.7C,00002191
2021-10-28 19:01:29 r, 19.74m,0000000001Hz,0000429749c,0000000.933s, 016.4C,00002191
2021-10-28 19:11:28 r, 20.36m,0000000001Hz,0000755348c,0000001.639s, 016.4C,00002191
2021-10-28 19:21:29 r, 20.56m,0000000000Hz,0000907055c,0000001.968s, 016.1C,00002191
2021-10-28 19:31:30 r, 20.61m,0000000000Hz,0000950128c,0000002.062s, 015.7C,00002191
2021-10-28 19:41:28 r, 20.63m,0000000001Hz,0000965921c,0000002.096s, 015.7C,00002191
2021-10-28 19:51:29 r, 20.65m,0000000000Hz,0000979793c,0000002.126s, 015.4C,00002191
2021-10-28 20:01:29 r, 20.66m,0000000000Hz,0000993220c,0000002.155s, 015.4C,00002191
2021-10-28 20:11:28 r, 20.67m,0000000000Hz,0001004902c,0000002.181s, 015.1C,00002191
2021-10-28 20:21:29 r, 20.68m,0000000000Hz,0001010548c,0000002.193s, 015.1C,00002191
2021-10-28 20:31:31 r, 20.69m,0000000001Hz,0001017135c,0000002.207s, 015.1C,00002191
2021-10-28 20:41:28 r, 20.70m,0000000001Hz,0001028612c,0000002.232s, 014.8C,00002191
2021-10-28 20:51:31 r, 20.71m,0000000000Hz,0001038703c,0000002.254s, 014.8C,00002191
2021-10-28 21:01:29 r, 20.72m,0000000001Hz,0001045160c,0000002.268s, 015.1C,00002191
2021-10-28 21:11:28 r, 20.72m,0000000000Hz,0001047949c,0000002.274s, 015.1C,00002191
2021-10-28 21:21:31 r, 20.72m,0000000001Hz,0001053656c,0000002.287s, 015.1C,00002191
2021-10-28 21:31:29 r, 20.73m,0000000000Hz,0001062296c,0000002.305s, 014.8C,00002191
2021-10-28 21:41:28 r, 20.75m,0000000000Hz,0001073182c,0000002.329s, 014.8C,00002191
2021-10-28 21:51:29 r, 20.76m,0000000001Hz,0001081577c,0000002.347s, 014.8C,00002191
2021-10-28 22:01:30 r, 20.76m,0000000000Hz,0001085419c,0000002.356s, 014.8C,00002191
2021-10-28 22:11:28 r, 20.76m,0000000001Hz,0001089156c,0000002.364s, 014.8C,00002191
2021-10-28 22:21:28 r, 20.76m,0000000000Hz,0001094116c,0000002.374s, 014.8C,00002191
2021-10-28 22:31:31 r, 20.77m,0000000001Hz,0001101210c,0000002.390s, 014.5C,00002191
2021-10-28 22:41:29 r, 20.78m,0000000000Hz,0001106365c,0000002.401s, 014.5C,00002191
2021-10-28 22:51:28 r, 20.78m,0000000000Hz,0001112093c,0000002.413s, 014.5C,00002191
2021-10-28 23:01:30 r, 20.80m,0000000001Hz,0001127484c,0000002.447s, 014.1C,00002191
2021-10-28 23:11:29 r, 20.80m,0000000001Hz,0001136276c,0000002.466s, 014.1C,00002191
2021-10-28 23:21:28 r, 20.82m,0000000000Hz,0001146920c,0000002.489s, 013.8C,00002191
2021-10-28 23:31:29 r, 20.82m,0000000000Hz,0001147159c,0000002.489s, 013.8C,00002191
2021-10-28 23:41:30 r, 20.81m,0000000000Hz,0001143984c,0000002.483s, 013.8C,00002191
2021-10-28 23:51:28 r, 20.79m,0000000000Hz,0001116762c,0000002.424s, 013.5C,00002191
